Probability
0 0 0 0 0 0 0 0 3 6 6 16 26 29 35 32 26 42 58 58 68 65 68 68 71 81 77 81 81 77 81 84 84 87 87 90 90 90 90 90 90 90 81 77
0 0 0 0 0 0 0 0 0 3 6 16 29 26 29 29 39 39 55 68 71 71 71 71 68 71 71 71 81 81 81 81 81 84 87 87 90 87 87 87 90 90 81 71
0 0 0 0 0 0 0 0 3 3 10 23 32 26 29 35 35 42 39 52 61 68 68 71 71 71 71 71 71 81 81 81 81 84 84 84 81 81 87 84 77 74 74 71
0 0 0 0 0 0 0 0 3 3 23 23 26 32 26 26 39 42 45 48 55 58 65 68 68 68 65 61 68 71 74 77 77 77 77 81 81 81 77 77 77 77 74 71
0 0 0 0 0 0 0 0 3 6 13 16 26 26 29 29 32 39 39 42 55 55 61 65 65 65 65 61 58 58 65 65 71 71 74 77 77 77 77 71 71 71 68 68
0 0 0 0 0 0 0 3 13 10 13 16 19 19 23 32 32 39 42 48 48 45 48 58 65 61 61 58 55 55 55 61 71 71 74 65 74 71 68 65 68 65 61 55
0 0 0 3 3 3 3 13 13 16 13 13 26 29 29 35 39 42 45 45 48 52 52 52 65 61 65 61 58 55 58 58 65 65 68 65 68 68 61 65 68 58 55 52
0 0 0 10 10 10 19 19 13 16 16 19 29 39 35 39 39 39 45 48 45 52 48 55 58 58 58 65 65 58 55 58 58 61 58 55 61 61 68 58 48 45 48 45
0 3 19 26 16 16 13 19 10 10 10 19 26 29 35 39 39 39 42 39 39 45 42 52 55 58 55 55 58 58 61 58 55 55 61 61 61 55 48 45 42 42 39 39
6 13 13 6 6 6 10 10 13 13 16 19 23 29 35 35 35 35 35 39 39 39 39 45 45 45 52 52 55 61 61 58 55 52 55 55 52 45 42 35 39 42 39 32
10 13 10 6 6 6 6 10 13 13 19 19 23 29 35 39 35 39 35 39 39 39 39 42 45 48 42 45 52 52 55 52 48 45 45 45 42 35 35 32 39 42 35 32
6 6 6 10 6 10 10 10 13 19 19 23 23 29 32 35 39 32 32 35 35 35 35 32 32 39 45 48 55 58 48 52 39 39 42 39 32 23 16 23 13 6 13 13
10 0 3 3 6 10 13 16 16 19 26 26 26 26 26 32 32 32 39 35 39 32 29 32 32 32 35 42 55 52 45 39 42 26 32 29 29 32 23 10 0 0 0 3
3 3 3 6 16 13 16 16 23 23 19 19 23 26 26 26 19 26 23 23 23 23 23 26 26 32 32 35 45 45 39 29 26 26 32 32 29 26 23 16 13 16 0 0
3 6 3 3 13 16 16 13 19 23 19 16 23 19 19 16 19 23 26 26 23 23 19 23 26 29 35 35 35 39 32 29 32 26 23 26 23 23 19 16 16 23 16 3
3 3 3 3 6 10 10 16 19 16 13 13 16 13 13 13 16 16 13 13 19 19 23 26 26 26 29 26 29 35 29 26 19 19 10 19 19 19 19 19 16 13 13 10
6 6 0 3 6 6 10 10 16 19 16 13 13 10 10 10 13 13 16 13 23 23 23 23 23 23 19 16 29 16 16 13 10 10 6 13 19 23 23 23 16 13 13 10
3 3 3 6 3 3 6 10 13 13 13 10 10 10 10 10 10 10 10 13 16 16 16 16 19 16 23 19 19 13 13 10 10 13 19 29 23 26 23 19 16 10 10 10
3 3 3 0 0 0 6 10 10 13 10 10 10 10 10 13 10 10 13 10 16 16 16 13 6 6 13 16 6 13 6 10 10 10 13 13 16 23 23 16 13 6 6 6
3 3 0 0 3 3 6 3 16 10 10 10 10 13 13 10 10 13 13 13 10 13 13 16 16 16 13 13 6 6 6 6 10 10 10 10 10 13 13 6 6 6 6 6
0 0 0 0 0 3 3 10 3 3 13 13 13 13 13 13 10 16 16 6 19 23 13 6 6 6 6 6 3 6 6 10 10 13 16 19 16 13 10 6 6 6 6 6
0 0 0 0 0 0 6 6 3 0 10 10 10 13 13 16 10 16 16 19 3 3 3 6 6 6 6 3 6 6 6 10 13 16 13 16 13 6 10 10 6 6 6 6
0 0 3 0 3 6 10 10 6 10 13 10 10 13 10 16 13 6 3 6 6 3 3 3 3 3 3 3 6 6 10 13 10 10 10 6 10 10 10 6 6 6 6 6
0 3 0 0 6 3 13 10 6 6 6 13 6 13 16 10 13 10 3 3 3 0 0 0 0 0 3 6 10 10 10 3 3 0 3 3 0 3 3 3 3 3 3 0
3 3 0 10 13 10 13 10 10 10 3 3 3 10 10 10 13 6 6 6 0 0 0 0 0 0 0 3 3 3 3 3 3 3 0 0 0 0 0 3 3 0 0 0
10 10 13 16 19 19 6 6 3 10 3 3 3 3 0 3 3 10 13 3 0 0 0 0 3 0 0 0 0 0 3 3 0 0 0 0 0 0 0 0 0 0 0 0
6 19 29 16 10 6 3 0 3 0 0 3 0 0 3 0 0 3 3 3 0 0 0 0 0 0 0 0 0 0 0 0 0 0 0 0 0 0 0 0 0 0 0 0
Height
5837 5843 5848 5850 5854 5858 5861 5863 5866 5868 5869 5868 5869 5869 5869 5871 5872 5874 5875 5876 5877 5878 5879 5879 5880 5880 5880 5880 5880 5880 5879 5879 5879 5879 5877 5876 5875 5874 5872 5870 5869 5868 5866 5865
5828 5834 5838 5842 5846 5850 5853 5856 5857 5859 5860 5858 5860 5861 5862 5864 5865 5865 5867 5869 5870 5871 5872 5873 5873 5874 5874 5874 5874 5874 5874 5873 5873 5872 5872 5870 5870 5869 5867 5865 5864 5862 5861 5859
5820 5825 5829 5832 5837 5841 5844 5846 5848 5850 5850 5849 5851 5852 5853 5855 5857 5858 5859 5860 5861 5863 5864 5865 5866 5867 5867 5867 5867 5867 5867 5867 5866 5866 5865 5865 5864 5862 5861 5859 5858 5856 5855 5853
5812 5816 5819 5825 5829 5832 5835 5837 5839 5840 5839 5841 5842 5843 5844 5845 5847 5849 5851 5852 5852 5854 5856 5857 5858 5858 5859 5859 5859 5860 5860 5859 5859 5859 5858 5857 5856 5855 5854 5852 5851 5850 5849 5847
5803 5807 5811 5816 5819 5822 5825 5827 5828 5829 5830 5832 5832 5834 5835 5834 5837 5839 5842 5843 5844 5845 5846 5848 5849 5849 5850 5850 5850 5851 5851 5851 5851 5850 5849 5848 5848 5847 5846 5845 5844 5843 5841 5839
5794 5799 5803 5807 5809 5812 5816 5816 5816 5818 5821 5823 5824 5825 5825 5826 5827 5830 5832 5833 5834 5835 5836 5838 5839 5839 5840 5840 5840 5840 5841 5841 5841 5841 5840 5839 5839 5838 5837 5836 5835 5834 5833 5831
5785 5790 5793 5796 5798 5803 5806 5805 5806 5808 5810 5813 5814 5815 5816 5817 5818 5820 5821 5823 5824 5825 5826 5827 5828 5829 5829 5829 5829 5830 5830 5831 5830 5830 5830 5829 5828 5827 5827 5826 5825 5824 5823 5822
5778 5782 5785 5785 5788 5791 5792 5795 5796 5798 5799 5801 5803 5804 5806 5807 5808 5809 5810 5811 5812 5813 5814 5815 5816 5817 5818 5818 5818 5819 5819 5819 5819 5819 5818 5818 5817 5816 5815 5815 5815 5814 5813 5813
5769 5773 5774 5776 5778 5780 5782 5785 5787 5789 5789 5790 5792 5794 5795 5796 5797 5798 5799 5800 5801 5802 5803 5804 5804 5805 5806 5806 5807 5807 5807 5807 5807 5807 5807 5806 5805 5805 5804 5803 5803 5803 5802 5802
5760 5762 5764 5767 5769 5771 5773 5775 5778 5779 5780 5781 5782 5783 5784 5785 5786 5787 5787 5788 5789 5789 5790 5791 5792 5792 5793 5793 5794 5794 5794 5794 5794 5794 5795 5794 5793 5793 5792 5791 5791 5791 5790 5789
5750 5753 5756 5758 5760 5762 5763 5766 5767 5769 5769 5770 5772 5772 5773 5773 5775 5775 5776 5776 5777 5777 5778 5779 5779 5779 5780 5780 5780 5781 5781 5781 5781 5782 5782 5781 5781 5781 5780 5780 5780 5779 5778 5778
5741 5743 5746 5748 5750 5752 5754 5755 5757 5758 5759 5760 5761 5761 5761 5761 5762 5763 5764 5764 5764 5764 5765 5765 5766 5766 5766 5767 5767 5767 5768 5768 5768 5769 5769 5769 5769 5769 5768 5768 5768 5768 5767 5766
5732 5733 5735 5737 5740 5742 5744 5745 5746 5747 5748 5749 5750 5750 5750 5750 5751 5751 5751 5751 5751 5751 5751 5752 5752 5753 5753 5753 5753 5754 5754 5755 5755 5756 5757 5757 5757 5757 5756 5756 5756 5756 5755 5755
5723 5725 5726 5728 5730 5733 5734 5735 5736 5737 5737 5738 5738 5738 5738 5738 5738 5738 5738 5738 5738 5738 5738 5738 5739 5739 5739 5739 5740 5740 5740 5741 5742 5743 5743 5744 5744 5744 5743 5743 5743 5743 5743 5743
5714 5716 5717 5718 5721 5723 5724 5725 5725 5726 5726 5727 5727 5727 5727 5727 5726 5726 5726 5725 5725 5725 5725 5725 5725 5725 5725 5726 5726 5726 5726 5727 5727 5728 5729 5730 5730 5730 5730 5731 5730 5730 5730 5730
5706 5708 5708 5710 5712 5713 5715 5715 5715 5716 5716 5716 5716 5716 5716 5715 5715 5714 5714 5713 5713 5712 5712 5711 5712 5712 5711 5712 5712 5713 5713 5714 5714 5714 5715 5716 5717 5717 5718 5718 5718 5718 5718 5718
5699 5701 5702 5703 5704 5705 5706 5706 5706 5706 5706 5706 5705 5705 5704 5704 5703 5703 5702 5701 5700 5700 5699 5699 5699 5699 5699 5699 5700 5700 5700 5701 5702 5702 5703 5704 5705 5705 5706 5706 5706 5706 5706 5706
5693 5694 5695 5696 5697 5697 5697 5697 5696 5696 5696 5695 5695 5694 5694 5693 5692 5691 5690 5689 5689 5688 5687 5687 5687 5687 5688 5688 5688 5688 5689 5689 5690 5691 5692 5692 5693 5694 5694 5695 5695 5695 5695 5695
5686 5687 5688 5689 5689 5688 5688 5688 5687 5687 5687 5686 5685 5685 5684 5683 5682 5681 5680 5679 5678 5678 5677 5677 5676 5676 5677 5677 5677 5678 5678 5679 5679 5679 5680 5681 5682 5683 5684 5684 5684 5684 5684 5684
5681 5681 5682 5682 5682 5681 5680 5679 5679 5679 5678 5677 5677 5676 5675 5674 5673 5672 5671 5670 5669 5668 5668 5667 5666 5666 5666 5667 5668 5668 5668 5668 5668 5669 5669 5670 5671 5672 5673 5673 5673 5673 5673 5672
5675 5675 5675 5675 5675 5674 5673 5673 5673 5672 5671 5670 5669 5668 5667 5666 5665 5664 5663 5662 5661 5660 5659 5659 5658 5658 5658 5659 5659 5659 5659 5659 5659 5659 5660 5660 5661 5662 5663 5663 5663 5663 5662 5662
5670 5670 5670 5669 5669 5668 5667 5667 5666 5666 5665 5663 5662 5660 5659 5658 5657 5657 5656 5655 5654 5652 5652 5651 5651 5651 5651 5651 5650 5650 5650 5650 5651 5651 5652 5652 5653 5653 5654 5654 5653 5653 5653 5653
5665 5665 5665 5664 5663 5663 5662 5661 5661 5660 5659 5658 5656 5654 5653 5652 5651 5650 5649 5648 5647 5646 5646 5645 5645 5644 5644 5644 5643 5643 5643 5643 5643 5643 5644 5644 5644 5644 5645 5645 5644 5644 5644 5643
5661 5660 5660 5659 5658 5658 5657 5656 5655 5654 5654 5653 5651 5650 5648 5647 5646 5645 5644 5643 5642 5641 5640 5639 5639 5638 5638 5637 5637 5637 5637 5637 5637 5637 5637 5637 5637 5637 5636 5636 5635 5634 5634 5634
5657 5656 5656 5656 5655 5654 5653 5653 5651 5650 5649 5648 5647 5645 5644 5643 5642 5640 5639 5638 5637 5636 5635 5635 5634 5633 5632 5632 5632 5632 5632 5632 5631 5631 5631 5630 5630 5630 5629 5628 5627 5626 5626 5625
5653 5653 5652 5652 5651 5650 5650 5649 5647 5646 5645 5644 5643 5642 5640 5639 5638 5637 5636 5634 5633 5632 5631 5630 5630 5629 5628 5627 5627 5627 5626 5626 5625 5625 5625 5624 5624 5623 5622 5620 5619 5619 5618 5618
5650 5650 5649 5649 5648 5647 5646 5645 5644 5642 5641 5640 5639 5638 5636 5635 5634 5633 5632 5631 5630 5629 5628 5627 5626 5625 5624 5623 5622 5622 5621 5621 5620 5620 5619 5618 5617 5616 5615 5614 5613 5612 5611 5610
Wind_Speed
35 32 29 27 25 26 28 30 30 29 28 30 30 30 31 30 30 29 30 28 28 28 27 26 26 26 26 25 25 24 23 22 22 23 23 23 22 22 22 22 22 23 23 22
37 35 32 32 30 28 30 30 30 31 32 33 33 33 33 33 33 32 32 32 30 30 30 29 29 28 29 28 28 28 27 26 25 25 25 25 25 25 24 24 25 24 24 23
36 35 33 34 33 31 31 32 32 33 35 35 36 36 36 35 36 36 35 33 32 32 32 31 31 31 31 31 31 30 29 29 28 28 27 28 27 27 27 26 26 26 25 26
36 35 36 35 32 32 33 33 34 37 38 38 39 39 38 37 37 37 35 34 34 33 33 33 33 33 32 33 33 32 32 32 31 30 30 30 29 29 29 29 28 27 27 28
35 34 34 33 33 33 33 35 36 39 40 40 39 38 39 39 38 37 36 36 35 35 35 35 35 35 35 35 35 35 35 34 34 33 33 32 32 31 31 31 30 29 29 29
35 33 32 32 33 34 33 36 38 39 39 39 40 40 41 40 38 36 36 36 36 37 37 38 38 38 38 38 38 37 37 37 37 37 36 36 35 34 34 34 33 32 31 31
34 33 31 32 35 34 35 38 39 39 38 38 39 40 40 40 39 39 38 37 38 38 39 40 40 41 42 42 41 40 40 41 40 40 39 39 38 37 38 37 36 35 34 33
32 32 33 35 36 37 38 37 38 39 39 39 39 39 39 40 40 40 39 39 40 40 41 42 43 44 44 43 43 43 43 43 43 42 42 41 41 40 39 38 38 37 37 36
33 35 36 36 38 39 38 37 38 39 39 38 39 39 40 41 41 41 41 41 42 42 42 43 44 44 45 45 45 45 45 45 44 44 43 43 42 41 41 40 39 38 38 37
34 36 38 38 39 38 39 38 38 38 39 40 41 41 41 41 41 41 42 43 43 43 43 43 44 45 45 46 46 47 46 45 45 45 44 44 44 43 42 41 40 39 39 38
35 36 37 39 40 39 38 38 38 38 40 41 41 41 42 42 41 41 41 42 43 43 44 44 44 44 45 46 46 46 46 45 44 44 44 44 44 43 43 42 42 41 42 41
35 36 38 39 39 40 39 38 39 39 40 41 41 42 42 41 40 41 42 42 43 44 45 45 44 44 44 45 46 45 45 45 44 43 44 44 45 43 42 42 42 42 42 42
35 35 35 37 38 37 38 38 38 38 38 39 39 40 41 42 42 43 43 44 44 45 45 45 45 45 44 45 45 46 47 46 45 45 45 45 45 45 45 44 44 44 43 42
34 34 35 34 35 36 37 38 38 38 38 38 39 40 41 41 42 42 42 43 43 44 45 45 45 45 45 45 45 46 47 47 47 46 45 45 46 46 46 46 45 44 44 43
31 33 34 34 34 35 35 36 37 36 37 37 38 38 39 40 40 41 41 42 42 42 43 44 44 44 45 44 44 45 46 46 46 45 44 45 45 45 45 44 43 43 43 43
29 31 31 31 31 32 33 33 34 35 35 35 36 36 37 38 38 38 39 40 41 41 42 42 41 41 42 42 43 43 44 44 45 44 44 43 43 43 43 42 42 42 41 41
27 28 28 29 30 30 31 31 32 33 33 34 34 35 36 36 37 38 38 38 39 39 39 39 39 38 39 39 40 39 39 39 40 41 41 41 40 40 40 40 39 39 38 38
26 27 27 28 29 29 29 30 31 32 32 32 32 33 34 34 34 35 35 35 35 35 35 36 36 37 37 37 37 36 36 38 39 39 39 39 39 38 37 36 36 36 35 35
24 24 25 25 26 26 26 28 30 30 30 30 30 31 32 32 32 31 31 32 32 32 31 32 33 34 34 34 34 35 35 36 37 37 37 36 36 36 35 35 35 35 35 35
21 22 23 23 24 25 25 25 25 26 26 27 28 29 28 28 28 28 28 29 30 30 29 30 31 30 30 31 32 33 33 32 32 32 32 32 33 33 34 34 34 33 33 33
19 20 21 21 22 23 22 22 23 23 24 25 25 26 26 26 25 25 26 27 27 27 27 27 27 27 27 28 28 29 29 29 29 30 29 29 29 30 30 31 31 30 31 31
17 18 19 20 21 21 21 21 21 21 22 22 22 22 22 22 23 23 24 25 25 25 26 25 25 24 25 25 25 25 26 27 27 27 27 27 27 27 27 28 28 29 30 30
16 16 17 18 19 18 18 19 19 19 19 19 19 19 19 20 20 21 22 22 23 22 22 22 22 22 23 24 23 22 23 23 23 23 24 25 25 26 26 27 28 28 29 29
15 15 15 16 16 15 15 16 17 17 17 17 18 18 18 19 19 19 20 20 19 19 18 19 19 20 21 21 21 21 21 21 21 22 23 23 23 23 24 25 26 27 28 28
13 13 14 14 13 13 14 14 15 15 15 16 17 17 17 17 17 17 17 17 17 16 17 17 18 18 19 19 18 19 19 20 21 21 20 20 21 22 22 23 24 25 25 25
12 12 12 13 13 13 13 14 14 15 15 15 16 16 16 15 16 15 15 15 15 15 15 15 15 16 17 17 18 18 19 20 20 20 21 21 21 22 22 22 23 24 24 24
11 12 12 12 12 12 12 12 13 13 14 14 15 15 15 15 15 15 15 15 15 14 14 14 14 14 15 16 16 16 17 18 18 19 19 20 21 22 22 22 22 23 24 24
Wind_Direction
225 222 225 231 232 232 235 236 237 241 247 250 252 255 255 252 254 258 260 260 258 258 260 264 268 271 274 277 279 279 280 282 281 283 286 289 291 295 298 300 301 301 301 303
230 225 228 230 231 233 236 238 240 241 243 247 248 249 254 256 257 258 259 259 258 258 259 261 265 269 271 273 275 278 280 282 281 282 285 286 289 292 293 297 298 300 301 302
235 232 234 237 233 235 239 240 241 244 246 248 250 251 252 255 257 259 261 260 258 259 260 261 262 265 267 270 272 274 277 280 281 282 282 283 286 287 289 293 297 299 298 298
239 235 236 236 235 236 240 244 245 245 248 248 249 252 256 257 259 260 261 261 260 259 259 260 261 262 265 267 270 271 273 276 278 280 280 281 283 283 287 290 292 292 292 294
239 239 241 238 237 237 240 242 244 245 247 249 252 255 256 257 257 259 261 260 260 259 259 260 260 261 263 266 268 270 272 274 275 277 278 279 279 281 284 285 287 288 290 291
237 237 238 237 237 239 240 244 244 247 249 250 251 254 257 259 259 260 262 262 261 260 260 260 260 261 263 264 265 267 269 271 272 274 275 277 277 277 279 281 282 283 285 287
238 237 239 239 239 240 240 244 247 249 253 254 253 254 257 261 264 264 262 261 261 261 261 261 261 262 262 263 265 266 267 269 271 272 273 275 275 275 277 279 281 280 282 284
237 235 236 240 241 241 244 248 252 254 256 256 257 258 259 260 262 264 264 263 262 263 263 263 263 264 264 263 264 266 266 267 270 271 273 275 276 276 278 278 280 281 282 282
235 235 238 242 244 246 248 250 253 256 259 259 260 260 260 261 261 262 263 263 264 264 264 264 264 264 264 265 265 266 267 267 268 270 272 274 275 275 275 275 276 279 281 281
238 239 240 243 247 250 250 253 255 256 258 261 262 262 262 262 262 262 263 264 264 265 265 265 265 265 265 265 265 266 267 267 268 269 270 271 274 275 275 276 277 280 283 281
238 240 243 245 248 251 254 254 256 257 258 260 261 262 263 262 262 262 264 264 265 265 266 266 266 266 266 266 266 266 266 266 267 268 269 270 272 273 274 275 277 278 280 281
243 245 245 247 249 250 255 257 257 258 259 261 262 262 263 262 263 264 265 265 265 265 266 266 267 267 266 265 265 265 265 266 266 268 269 271 273 274 274 275 276 277 281 280
244 248 249 248 249 252 255 257 258 260 261 262 263 263 264 264 266 267 267 266 266 267 266 266 266 267 267 266 265 264 264 265 266 267 268 270 271 273 274 275 275 277 278 279
246 248 250 250 250 254 257 259 260 261 262 263 264 264 265 266 267 268 268 268 268 269 268 267 267 267 268 266 265 265 264 265 266 267 267 269 270 271 273 274 274 275 276 275
249 249 251 252 254 256 259 261 262 263 264 264 265 266 267 267 268 268 268 269 269 269 269 270 269 268 267 266 265 265 265 265 266 265 266 267 268 270 273 274 274 275 275 274
253 254 257 258 258 259 261 263 264 265 266 267 268 268 268 269 269 271 270 270 271 271 271 271 270 268 267 266 266 266 265 266 266 265 265 266 268 270 272 273 274 274 274 273
254 256 258 260 261 263 264 264 265 266 267 268 269 270 270 270 270 272 272 272 271 272 272 270 269 268 268 268 269 269 267 266 266 265 266 268 269 269 271 273 273 273 273 273
255 258 260 263 265 265 265 266 267 269 270 270 270 270 271 272 272 273 273 272 272 272 272 270 268 268 268 268 268 268 267 267 267 266 266 268 269 269 269 271 273 273 274 274
258 261 262 264 265 267 268 267 268 270 271 271 271 271 272 273 274 274 273 272 273 274 273 272 270 269 267 266 266 267 267 268 268 267 267 267 268 269 269 270 271 272 274 274
260 263 266 267 267 269 272 271 270 272 272 273 273 274 274 274 274 274 274 274 276 277 274 272 271 268 268 269 269 269 269 268 267 267 266 266 267 268 269 271 273 273 273 274
263 265 266 269 271 272 273 273 272 272 274 276 277 276 274 274 273 274 276 277 278 277 275 273 272 270 271 272 273 271 269 268 267 267 266 266 267 269 270 271 272 274 276 278
265 267 267 268 271 274 274 274 274 274 277 280 282 280 277 275 275 276 277 279 280 279 277 276 276 274 275 275 273 272 268 266 266 265 265 267 269 270 271 271 273 276 278 278
266 268 269 270 274 276 274 274 276 277 279 281 282 281 279 279 280 281 282 282 281 281 279 279 279 279 280 278 275 274 272 271 271 271 272 272 272 272 271 272 274 275 276 277
270 271 271 273 276 274 274 278 280 280 279 280 281 282 284 284 284 284 286 286 285 282 281 280 280 282 281 280 278 276 277 278 277 277 276 274 273 273 273 274 275 275 275 276
270 271 274 277 280 278 279 281 282 283 284 286 287 288 291 291 288 288 289 289 285 282 282 281 283 284 282 282 280 279 279 280 281 278 278 278 277 277 279 280 281 279 279 279
274 275 277 281 285 286 285 287 289 288 289 290 290 291 291 291 291 292 293 291 288 285 283 284 286 285 285 286 283 281 282 282 282 281 282 283 283 283 284 284 284 284 283 281
278 278 279 283 289 292 292 292 294 295 293 292 292 293 293 292 292 292 293 292 290 289 287 284 285 287 288 289 289 289 288 287 287 285 284 284 284 285 286 285 285 285 284 283